Simultaneous Nadir Overpasses (SNOs) Predictions

Prediction of SNOs between NPP and TERRA Satellite Orbit:

Table of predicted SNOs for the next 14.0 days since TLE Epoch: 5/26/2012
Index Date (NPP) Time (NPP) Lat,Lon (NPP) SZA (NPP ) Date (TERRA) Time (TERRA) Lat,Lon (TERRA) SZA (TERRA ) Distance(km) Time Diff (sec)
1 05/26/2012 02:55:11 69.39, 133.17 48.13 05/26/2012 02:56:17 69.28, 135.66 47.99 98.78 66
2 05/26/2012 03:45:33 -68.25, -57.97 133.05 05/26/2012 03:46:04 -68.23, -58.02 133.07 3.16 31
3 05/26/2012 04:36:17 68.12, 109.51 46.81 05/26/2012 04:35:31 68.11, 109.49 46.81 0.84 46
4 05/28/2012 19:11:47 68.50,-109.84 46.78 05/28/2012 19:12:58 68.47,-109.47 46.74 15.35 71
5 05/28/2012 20:02:25 -68.21, 57.86 133.53 05/28/2012 20:02:31 -68.20, 57.83 133.54 1.72 6
6 05/28/2012 20:53:09 68.08,-134.67 46.34 05/28/2012 20:51:58 68.08,-134.66 46.34 0.47 71
7 05/31/2012 11:28:36 68.30, 6.20 46.19 05/31/2012 11:29:27 68.30, 6.22 46.18 0.84 51
8 05/31/2012 12:19:17 -68.16, 173.69 133.96 05/31/2012 12:18:58 -68.14, 173.66 133.98 2.52 19
9 05/31/2012 13:09:46 67.23, -17.86 45.10 05/31/2012 13:08:38 67.29, -19.66 45.17 77.72 68
10 06/03/2012 03:45:28 68.26, 122.02 45.80 06/03/2012 03:45:53 68.28, 122.09 45.82 3.40 25
11 06/03/2012 04:36:09 -68.12, -70.47 134.35 06/03/2012 04:35:24 -68.13, -70.47 134.34 1.08 45
12 06/05/2012 19:11:38 -68.49, 70.20 134.26 06/05/2012 19:12:50 -68.43, 70.51 134.34 14.52 72
13 06/05/2012 20:02:18 68.17,-122.07 45.40 06/05/2012 20:02:19 68.19,-122.13 45.42 3.46 1
14 06/05/2012 20:53:00 -68.07, 45.36 134.70 06/05/2012 20:51:49 -68.09, 45.38 134.68 2.40 71
15 06/08/2012 11:28:27 -68.28,-173.75 134.73 06/08/2012 11:29:18 -68.26,-173.80 134.76 3.24 51
16 06/08/2012 12:19:11 68.17, -6.31 45.16 06/08/2012 12:18:44 68.18, -6.24 45.17 2.92 27
17 06/08/2012 13:09:37 -67.21, 162.18 135.82 06/08/2012 13:08:29 -67.25, 160.33 135.76 80.02 68




NCC Satellite Simultaneous Nadir Overpasses (SNOs) Prediction Service
